Harare Kutsaga, Zimbabwe

3:39 PM CAT on October 20, 2017 (GMT +0200)
Harare Kutsaga

Weather History for FVHA - November, 2011

Change the Weather History Date:

Wednesday, November 9, 2011

  Actual Average Record
Temperature  
Mean Temperature 72 °F -  
Max Temperature 85 °F 80 °F 92 °F (2015)
Min Temperature 59 °F 59 °F 55 °F (2006)
Cooling Degree Days 7    
Growing Degree Days 22 (Base 50)    
Moisture  
Dew Point 49 °F    
Average Humidity 44    
Maximum Humidity 77    
Minimum Humidity 19    
Precipitation  
Precipitation 0.00 in 0.16 in - ()
Sea Level Pressure  
Sea Level Pressure 30.13 in    
Wind  
Wind Speed 7 mph ()    
Max Wind Speed 12 mph    
Max Gust Speed -    
Visibility 14.9 miles    
Events      
Averages and records for this station are not official NWS values.
T = Trace of Precipitation, MM = Missing Value Source: Averaged Metar Reports

Daily Weather History Graph

Daily Weather History Graph

Search for Another Location

Airport or City:

Trip Planner

Search our weather history database for the weather conditions in past years. The results will help you decide how hot, cold, wet, or windy it might be!

Date:

Astronomy

Nov. 09, 2011 Rise Set
Actual Time 5:13 AM CAT 6:05 PM CAT
Civil Twilight 4:50 AM CAT 6:28 PM CAT
Nautical Twilight 4:23 AM CAT 6:55 PM CAT
Astronomical Twilight 3:55 AM CAT 7:23 PM CAT
Moon 5:03 PM CAT (11/9) 4:00 AM CAT (11/9)
Length of Visible Light 13h 38m
Length of Day
12h 52m
Waxing Gibbous, 98% of the Moon is Illuminated
Nov 9
Waxing Gibbous
Nov 10
Full
Nov 18
Last Quarter
Nov 25
New
Dec 2
First Quarter

Hourly Weather History & Observations

Time (CAT) Temp. Dew Point Humidity Pressure Visibility Wind Dir Wind Speed Gust Speed Precip Events Conditions
12:00 AM 64.4 °F 51.8 °F 64% 30.18 in - East 5.8 mph - N/A   Clear
2:00 AM 63 °F 54 °F 64%  in 19 mi NE 8.1 mph - -  
2:00 AM 62.6 °F 53.6 °F 72% 30.15 in - NE 8.1 mph - N/A   Clear
5:00 AM 60.8 °F 51.8 °F 72% 30.15 in - NE 3.5 mph - N/A   Clear
6:00 AM 60.8 °F 53.6 °F 77% 30.18 in 5.6 mi ENE 3.5 mph - N/A   Clear
7:00 AM 68.0 °F 53.6 °F 60% 30.21 in - ENE 11.5 mph - N/A   Clear
8:00 AM 69 °F 54 °F 50%  in 12 mi ENE 9.2 mph - -   Haze
8:00 AM 68.0 °F 55.4 °F 64% 30.21 in - ENE 9.2 mph - N/A   Clear
9:00 AM 71.6 °F 53.6 °F 53% 30.21 in - ENE 8.1 mph - N/A   Clear
10:00 AM 75.2 °F 51.8 °F 44% 30.18 in - ESE 9.2 mph - N/A   Clear
11:00 AM 80.6 °F 50.0 °F 34% 30.18 in - East 9.2 mph - N/A   Clear
12:00 PM 82.4 °F 48.2 °F 30% 30.15 in - East 8.1 mph - N/A   Clear
1:00 PM 82.4 °F 48.2 °F 30% 30.12 in - East 9.2 mph - N/A   Clear
2:00 PM 83 °F 47 °F 19%  in 19 mi East 5.8 mph - -   Scattered Clouds
2:00 PM 82.4 °F 48.2 °F 30% 30.09 in - East 5.8 mph - N/A   Clear
3:00 PM 84.2 °F 48.2 °F 29% 30.06 in - East 5.8 mph - N/A   Clear
4:00 PM 84.2 °F 44.6 °F 25% 30.06 in - NNE 4.6 mph - N/A   Clear
5:00 PM 84.2 °F 48.2 °F 29% 30.04 in - ENE 8.1 mph - N/A   Clear
6:00 PM 78.8 °F 42.8 °F 28% 30.06 in - ENE 8.1 mph - N/A   Clear
7:00 PM 75.2 °F 44.6 °F 34% 30.06 in - NE 6.9 mph - N/A   Clear
8:00 PM 74 °F 44 °F 23%  in 19 mi NE 9.2 mph - -  
8:00 PM 73.4 °F 44.6 °F 36% 30.09 in - NE 9.2 mph - N/A   Clear
9:00 PM 71.6 °F 44.6 °F 38% 30.09 in - NE 9.2 mph - N/A   Clear
10:00 PM 69.8 °F 44.6 °F 40% 30.06 in - NE 9.2 mph - N/A   Clear